EW8682 Weather Reports


Display with metric or nautical units.
time (UTC)temp
F
wind
direction
speed
MPH
gust
MPH
rain 1hr
in
rain 24hr
in
rain mn
in
humidity
%
barometer
mb
20260901091542 56 66 1.0 2.0 0.00 0.00 0.00 72 1006.0
20260901090039 57 66 1.0 3.0 0.00 0.00 0.00 71 1006.0
20260901084540 57 66 1.0 2.0 0.00 0.00 0.00 71 1006.1
20260901083036 58 66 0.0 2.0 0.00 0.00 0.00 69 1006.0
20260901081534 58 66 1.0 2.0 0.00 0.00 0.00 67 1006.1
20260901080032 59 66 1.0 2.0 0.00 0.00 0.00 64 1006.3
20260901074532 58 66 1.0 2.0 0.00 0.00 0.00 63 1006.3
20260901073033 59 66 0.0 2.0 0.00 0.00 0.00 61 1006.3
20260901071526 60 66 0.0 2.0 0.00 0.00 0.00 61 1006.1
20260901070024 60 66 0.0 3.0 0.00 0.00 0.00 60 1006.0
20260901064525 60 66 0.0 2.0 0.00 0.00 0.00 59 1005.8
20260901063017 60 66 1.0 3.0 0.00 0.00 0.00 58 1005.6
20260901061516 61 66 1.0 2.0 0.00 0.00 0.00 56 1005.6
20260901060015 62 66 1.0 2.0 0.00 0.00 0.00 52 1005.6
20260901054515 62 66 2.0 3.0 0.00 0.00 0.00 51 1005.6
20260901053015 62 67 1.0 2.0 0.00 0.00 0.00 49 1005.6
20260901051513 63 67 1.0 3.0 0.00 0.00 0.00 49 1005.5
20260901050013 63 67 1.0 4.0 0.00 0.00 0.00 48 1005.5
20260901044514 63 67 1.0 2.0 0.00 0.00 0.00 48 1005.2
20260901043013 64 67 1.0 3.0 0.00 0.00 0.00 49 1005.0
20260901041511 65 68 1.0 3.0 0.00 0.00 0.00 49 1005.0
20260901040010 66 70 2.0 3.0 0.00 0.00 0.00 50 1004.7
20260901034521 67 178 1.0 2.0 0.00 0.00 0.00 50 1004.6
20260901033009 68 178 1.0 2.0 0.00 0.00 0.00 49 1004.4
20260901031507 69 178 1.0 3.0 0.00 0.00 0.00 47 1004.3
20260901030007 72 185 0.0 2.0 0.00 0.00 0.00 44 1004.2
20260901024507 74 185 0.0 3.0 0.00 0.00 0.00 42 1004.1
20260901023011 75 186 0.0 1.0 0.00 0.00 0.00 40 1004.2
20260901021510 76 186 0.0 2.0 0.00 0.00 0.00 38 1004.1
20260901020005 77 183 1.0 4.0 0.00 0.00 0.00 36 1004.0
20260901014505 79 175 3.0 6.0 0.00 0.00 0.00 35 1004.0
20260901013004 80 188 2.0 6.0 0.00 0.00 0.00 29 1003.9
20260901011506 81 176 3.0 6.0 0.00 0.00 0.00 30 1003.9
20260901010003 82 173 2.0 9.0 0.00 0.00 0.00 29 1004.0
20260901004502 83 159 4.0 9.0 0.00 0.00 0.00 26 1004.0
20260901003001 83 153 3.0 8.0 0.00 0.00 0.00 29 1003.9
20260901001600 84 159 5.0 10.0 0.00 0.00 0.00 29 1003.9
20260901000057 85 173 3.0 9.0 0.00 0.00 0.00 26 1003.8
20260831234558 85 194 3.0 7.0 0.00 0.00 0.00 30 1003.9
20260831233056 84 165 4.0 8.0 0.00 0.00 0.00 28 1003.8
20260831231557 85 169 4.0 9.0 0.00 0.00 0.00 29 1003.8
20260831230103 85 192 3.0 10.0 0.00 0.00 0.00 35 1003.7
20260831224554 86 170 5.0 10.0 0.00 0.00 0.00 36 1004.0
20260831223053 86 169 6.0 9.0 0.00 0.00 0.00 31 1004.1
20260831221600 87 186 3.0 11.0 0.00 0.00 0.00 30 1004.1
20260831220100 87 184 3.0 9.0 0.00 0.00 0.00 32 1004.1
20260831214549 86 182 1.0 10.0 0.00 0.00 0.00 36 1004.3
20260831213049 87 215 4.0 10.0 0.00 0.00 0.00 34 1004.5
20260831211555 86 178 6.0 10.0 0.00 0.00 0.00 36 1004.6
20260831210045 86 171 1.0 7.0 0.00 0.00 0.00 36 1004.5
20260831204552 86 159 5.0 10.0 0.00 0.00 0.00 40 1004.6
20260831203045 86 165 4.0 8.0 0.00 0.00 0.00 39 1004.7
20260831201540 85 178 4.0 9.0 0.00 0.00 0.00 41 1004.8
20260831200043 84 182 4.0 8.0 0.00 0.00 0.00 46 1004.8
20260831194535 84 179 4.0 9.0 0.00 0.00 0.00 49 1005.0
20260831193040 83 213 5.0 11.0 0.00 0.00 0.00 52 1005.2
20260831191535 83 249 1.0 7.0 0.00 0.00 0.00 52 1005.1
20260831190027 81 169 4.0 7.0 0.00 0.00 0.00 55 1005.2
20260831184525 80 319 1.0 7.0 0.00 0.00 0.00 56 1005.3
20260831183020 80 236 2.0 7.0 0.00 0.00 0.00 56 1005.5
20260831181522 79 190 2.0 6.0 0.00 0.00 0.00 59 1005.6
20260831180024 77 201 3.0 8.0 0.00 0.00 0.00 60 1005.5
20260831174519 77 184 2.0 7.0 0.00 0.00 0.00 62 1005.5
20260831173003 75 207 1.0 5.0 0.00 0.00 0.00 64 1005.5
20260831171601 75 239 3.0 5.0 0.00 0.00 0.00 64 1005.5
20260831164603 73 276 2.0 6.0 0.00 0.00 0.00 67 1005.3
20260831163052 72 227 0.0 3.0 0.00 0.00 0.00 69 1005.2
20260831161547 70 184 0.0 3.0 0.00 0.00 0.00 69 1005.2
20260831160048 70 175 0.0 2.0 0.00 0.00 0.00 71 1005.2
20260831154542 68 171 0.0 2.0 0.00 0.00 0.00 75 1005.1
20260831153039 67 171 0.0 1.0 0.00 0.00 0.00 78 1005.0
20260831151537 66 171 0.0 2.0 0.00 0.00 0.00 80 1005.1
20260831150043 64 171 0.0 1.0 0.00 0.00 0.00 81 1004.9
20260831144536 62 171 1.0 2.0 0.00 0.00 0.00 84 1004.8
20260831143032 61 171 1.0 2.0 0.00 0.00 0.00 86 1004.8
20260831141529 60 171 0.0 2.0 0.00 0.00 0.00 87 1004.5
20260831140027 60 171 1.0 2.0 0.00 0.00 0.00 87 1004.3
20260831134525 60 171 1.0 2.0 0.00 0.00 0.00 87 1004.2
20260831133023 60 171 0.0 2.0 0.00 0.00 0.00 86 1004.0
20260831131521 60 171 0.0 1.0 0.00 0.00 0.00 85 1003.9
20260831130021 61 171 1.0 3.0 0.00 0.00 0.00 85 1003.8
20260831124519 61 172 0.0 2.0 0.00 0.00 0.00 85 1003.9
20260831123019 61 172 0.0 2.0 0.00 0.00 0.00 85 1003.9
20260831121517 61 172 0.0 2.0 0.00 0.00 0.00 84 1003.8
20260831120031 62 172 0.0 2.0 0.00 0.00 0.00 85 1003.6
20260831114526 62 172 1.0 2.0 0.00 0.00 0.00 83 1003.7
20260831113013 62 172 1.0 3.0 0.00 0.00 0.00 83 1003.7
20260831111510 62 178 0.0 2.0 0.00 0.00 0.00 82 1003.9
20260831110009 63 178 0.0 2.0 0.00 0.00 0.00 81 1003.9
20260831104507 63 178 0.0 0.0 0.00 0.00 0.00 80 1003.9
20260831103006 64 178 0.0 2.0 0.00 0.00 0.00 80 1004.0
20260831101505 64 178 1.0 2.0 0.00 0.00 0.00 80 1003.9
20260831100004 64 178 0.0 2.0 0.00 0.00 0.00 79 1004.0
20260831094502 64 178 0.0 1.0 0.00 0.00 0.00 76 1003.9
20260831093100 65 178 0.0 0.0 0.00 0.00 0.00 76 1003.9